Weather History for K1R7 - September, 2012

Change the Weather History Date:

Thursday, September 20, 2012

  Actual Average (KMCB) Record (KMCB)
Temperature  
Mean Temperature 66 °F -  
Max Temperature 80 °F 84 °F 97 °F (2005)
Min Temperature 51 °F 64 °F 45 °F (1981)
Growing Degree Days 16 (Base 50)    
Moisture  
Dew Point 55 °F    
Average Humidity 78    
Maximum Humidity 100    
Minimum Humidity 39    
Precipitation  
Precipitation 0.00 in - - ()
Sea Level Pressure  
Sea Level Pressure 30.09 in    
Wind  
Wind Speed 0 mph (North)    
Max Wind Speed 4 mph    
Max Gust Speed -    
Visibility 10 miles    
Events      
Averages and records for this station are not official NWS values.
T = Trace of Precipitation, MM = Missing Value Source: NWS Daily Summary

Daily Weather History Graph

Daily Weather History Graph

Search for Another Location

Airport or City:

Trip Planner

Search our weather history database for the weather conditions in past years. The results will help you decide how hot, cold, wet, or windy it might be!

Date:

Astronomy

Sep. 20, 2012 Rise Set
Actual Time 6:48 AM CDT 7:00 PM CDT
Civil Twilight 6:24 AM CDT 7:24 PM CDT
Nautical Twilight 5:56 AM CDT 7:52 PM CDT
Astronomical Twilight 5:27 AM CDT 8:21 PM CDT
Moon 11:45 AM CDT (9/20) 10:24 PM CDT (9/20)
Length of Visible Light 12h 59m
Length of Day
12h 11m
Waxing Crescent, 27% of the Moon is Illuminated
Sep 20
Waxing Crescent
Sep 22
First Quarter
Sep 29
Full
Oct 8
Last Quarter
Oct 15
New

Hourly Weather History & Observations

Time (CDT) Temp. Heat Index Dew Point Humidity Pressure Visibility Wind Dir Wind Speed Gust Speed Precip Events Conditions
12:15 AM 53.6 °F - 53.6 °F 100% 30.11 in 10.0 mi Calm Calm - N/A   Clear
12:35 AM 53.6 °F - 53.6 °F 100% 30.11 in 10.0 mi Calm Calm - N/A   Clear
12:55 AM 53.6 °F - 53.6 °F 100% 30.11 in 10.0 mi Calm Calm - N/A   Clear
1:15 AM 53.6 °F - 53.6 °F 100% 30.11 in 10.0 mi Calm Calm - N/A   Clear
1:35 AM 53.6 °F - 53.6 °F 100% 30.11 in 10.0 mi Calm Calm - N/A   Clear
1:55 AM 53.6 °F - 53.6 °F 100% 30.11 in 10.0 mi Calm Calm - N/A   Clear
2:15 AM 51.8 °F - 51.8 °F 100% 30.11 in 10.0 mi Calm Calm - N/A   Clear
2:35 AM 53.6 °F - 51.8 °F 94% 30.11 in 10.0 mi Calm Calm - N/A   Clear
2:55 AM 51.8 °F - 51.8 °F 100% 30.10 in 10.0 mi Calm Calm - N/A   Clear
3:15 AM 51.8 °F - 51.8 °F 100% 30.10 in 10.0 mi Calm Calm - N/A   Clear
3:35 AM 51.8 °F - 51.8 °F 100% 30.10 in 10.0 mi Calm Calm - N/A   Clear
3:55 AM 51.8 °F - 51.8 °F 100% 30.10 in 10.0 mi Calm Calm - N/A   Clear
4:15 AM 51.8 °F - 51.8 °F 100% 30.10 in 10.0 mi Calm Calm - N/A   Clear
4:35 AM 51.8 °F - 51.8 °F 100% 30.10 in 10.0 mi Calm Calm - N/A   Clear
4:55 AM 51.8 °F - 51.8 °F 100% 30.10 in 10.0 mi Calm Calm - N/A   Clear
5:15 AM 51.8 °F - 51.8 °F 100% 30.10 in 10.0 mi Calm Calm - N/A   Clear
5:35 AM 51.8 °F - 51.8 °F 100% 30.11 in 10.0 mi Calm Calm - N/A   Clear
5:55 AM 51.8 °F - 51.8 °F 100% 30.11 in 10.0 mi Calm Calm - N/A   Clear
6:15 AM 51.8 °F - 51.8 °F 100% 30.11 in 10.0 mi Calm Calm - N/A   Clear
6:35 AM 51.8 °F - 51.8 °F 100% 30.11 in 10.0 mi Calm Calm - N/A   Clear
6:55 AM 51.8 °F - 50.0 °F 94% 30.12 in 8.0 mi Calm Calm - N/A   Clear
7:35 AM 51.8 °F - 51.8 °F 100% 30.12 in 10.0 mi Calm Calm - N/A   Clear
7:55 AM 55.4 °F - 55.4 °F 100% 30.13 in 10.0 mi Calm Calm - N/A   Clear
8:35 AM 60.8 °F - 55.4 °F 82% 30.13 in 10.0 mi Calm Calm - N/A   Clear
8:55 AM 64.4 °F - 57.2 °F 77% 30.13 in 10.0 mi Calm Calm - N/A   Clear
9:15 AM 64.4 °F - 55.4 °F 73% 30.13 in 10.0 mi Calm Calm - N/A   Clear
9:35 AM 68.0 °F - 57.2 °F 68% 30.14 in 10.0 mi Calm Calm - N/A   Clear
9:55 AM 69.8 °F - 55.4 °F 60% 30.14 in 10.0 mi Calm Calm - N/A   Clear
10:15 AM 71.6 °F - 55.4 °F 57% 30.14 in 10.0 mi Calm Calm - N/A   Clear
10:35 AM 71.6 °F - 53.6 °F 53% 30.14 in 10.0 mi NE 3.5 mph - N/A   Clear
10:55 AM 71.6 °F - 53.6 °F 53% 30.14 in 10.0 mi Calm Calm - N/A   Clear
11:15 AM 71.6 °F - 53.6 °F 53% 30.13 in 10.0 mi Calm Calm - N/A   Clear
11:55 AM 73.4 °F - 55.4 °F 53% 30.12 in 10.0 mi Calm Calm - N/A   Clear
12:15 PM 73.4 °F - 53.6 °F 50% 30.11 in 10.0 mi Calm Calm - N/A   Clear
12:35 PM 75.2 °F - 51.8 °F 44% 30.10 in 10.0 mi Calm Calm - N/A   Clear
12:55 PM 75.2 °F - 53.6 °F 47% 30.10 in 10.0 mi Calm Calm - N/A   Clear
1:15 PM 77.0 °F - 55.4 °F 47% 30.09 in 10.0 mi Calm Calm - N/A   Clear
1:35 PM 75.2 °F - 53.6 °F 47% 30.08 in 10.0 mi Calm Calm - N/A   Clear
1:55 PM 77.0 °F - 53.6 °F 44% 30.07 in 10.0 mi Calm Calm - N/A   Clear
2:15 PM 78.8 °F - 55.4 °F 44% 30.06 in 10.0 mi North 3.5 mph - N/A   Clear
2:35 PM 78.8 °F - 53.6 °F 42% 30.06 in 10.0 mi Calm Calm - N/A   Clear
3:15 PM 78.8 °F - 55.4 °F 44% 30.05 in 9.0 mi Calm Calm - N/A   Clear
3:35 PM 78.8 °F - 53.6 °F 42% 30.05 in 10.0 mi Calm Calm - N/A   Clear
3:55 PM 80.6 °F 80.3 °F 53.6 °F 39% 30.05 in 10.0 mi Calm Calm - N/A   Clear
4:15 PM 78.8 °F - 53.6 °F 42% 30.04 in 10.0 mi Calm Calm - N/A   Clear
4:35 PM 78.8 °F - 53.6 °F 42% 30.04 in 10.0 mi Calm Calm - N/A   Clear
4:55 PM 78.8 °F - 53.6 °F 42% 30.04 in 10.0 mi Calm Calm - N/A   Clear
5:15 PM 78.8 °F - 53.6 °F 42% 30.04 in 10.0 mi WNW 3.5 mph - N/A   Clear
5:55 PM 78.8 °F - 53.6 °F 42% 30.04 in 10.0 mi Calm Calm - N/A   Clear
6:15 PM 75.2 °F - 62.6 °F 65% 30.04 in 10.0 mi Calm Calm - N/A   Clear
6:35 PM 73.4 °F - 64.4 °F 73% 30.04 in 10.0 mi Calm Calm - N/A   Clear
6:55 PM 69.8 °F - 62.6 °F 78% 30.04 in 10.0 mi Calm Calm - N/A   Clear
7:15 PM 66.2 °F - 62.6 °F 88% 30.04 in 10.0 mi Calm Calm - N/A   Clear
7:55 PM 64.4 °F - 62.6 °F 94% 30.04 in 10.0 mi Calm Calm - N/A   Clear
8:15 PM 62.6 °F - 60.8 °F 94% 30.05 in 10.0 mi Calm Calm - N/A   Clear
8:55 PM 62.6 °F - 60.8 °F 94% 30.06 in 10.0 mi Calm Calm - N/A   Clear
9:15 PM 60.8 °F - 60.8 °F 100% 30.06 in 10.0 mi Calm Calm - N/A   Clear
9:35 PM 60.8 °F - 60.8 °F 100% 30.07 in 10.0 mi Calm Calm - N/A   Clear
9:55 PM 60.8 °F - 59.0 °F 94% 30.07 in 10.0 mi Calm Calm - N/A   Clear
10:15 PM 60.8 °F - 59.0 °F 94% 30.07 in 10.0 mi Calm Calm - N/A   Clear
10:35 PM 59.0 °F - 59.0 °F 100% 30.07 in 10.0 mi Calm Calm - N/A   Clear
10:55 PM 59.0 °F - 57.2 °F 94% 30.07 in 10.0 mi Calm Calm - N/A   Clear
11:15 PM 59.0 °F - 57.2 °F 94% 30.07 in 10.0 mi Calm Calm - N/A   Clear
11:35 PM 59.0 °F - 57.2 °F 94% 30.07 in 10.0 mi Calm Calm - N/A   Clear
11:55 PM 57.2 °F - 57.2 °F 100% 30.07 in 10.0 mi Calm Calm - N/A   Clear